Alpine Airstrip, AK

4:33 PM AKDT on July 30, 2016 (GMT -0800)
Deadhorse Alpine Airstrip | | Change Station

Elev 16 ft 70.34 °N, 150.94 °W | Updated 1 hour ago

Light Rain
Light Rain
45 °F
Feels Like 36 °F
N
25
Wind Variable Wind from WSW
Gusts 32 mph

Today
High -- | Low -- °F
--% Chance of Precip.
Yesterday
High -- | Low -- °F
Precip. -- in
Pressure 29.76 in
Visibility 10.0 miles
Clouds Mostly Cloudy 1500 ft
Overcast 2800 ft
Windchill 36 °F
Dew Point 39 °F
Humidity 81%
Rainfall 0.00 in
Snow Depth Not available.
3:03 AM 1:06 AM
Waning Crescent, 10% visible
METAR PALP 302247Z 24022G28KT 10SM -RA BKN015 OVC028 07/04 A2976
Pressure 29.76 in
Visibility 10.0 miles
Clouds Mostly Cloudy 1500 ft
Overcast 2800 ft
Windchill 36 °F
Dew Point 39 °F
Humidity 81%
Rainfall 0.00 in
Snow Depth Not available.
3:03 AM 1:06 AM
Waning Crescent, 10% visible
METAR PALP 302247Z 24022G28KT 10SM -RA BKN015 OVC028 07/04 A2976

10-Day Weather Forecast

Almanac

Astronomy

Jul. 30, 2016 Rise Set
Actual Time
Civil Twilight
Nautical Twilight
Astronomical Twilight
Moon
Length of Visible Light
Length of Day
Tomorrow will be .
, % of the Moon is Illuminated

Today's Extremes

State Highs State Lows

Community

WunderPhotos

Upload Photos

1,928,682 photos uploaded!

WunderBlog® & News

Nearby

Air Quality

  Air Quality AQ Index Pollutant
Not available.

Snow Depth

Station Depth Elevation

Earthquake Activity

City Distance Mag. Time & Date
Minimum magnitude displayed is 2.5.

Coastal Water Temperatures

Place Temperature

Stations

Nearby Weather Stations

Station Location Temp. Windchill Dew Point Humidity Wind Precip. Elev Updated Type
                   

Watches & Warnings

There are currently no watches in effect.